リニア彗星

222P/LINEAR (2014)

English version
Home page
Updated on May 8, 2015

---------------------------------------------------------------------

・ プロフィール

・ 写真集

・ 軌道要素

Epoch 2014 July 2.0 TT = JDT 2456840.5
T 2014 July 4.54065 TT                                  MPCW
q   0.7842907            (2000.0)            P               Q
n   0.20355256     Peri.  345.44778     +0.99148835     +0.12972068
a   2.8621013      Node     7.12663     -0.10870643     +0.87177593
e   0.7259738      Incl.    5.13688     -0.07165022     +0.47241854
P   4.84
From 199 observations 2004 Dec. 9-2015 Jan. 27, mean residual 0".6.

・ 星図

・ 光度変化

        H = 18.5  G = 0.15                        [   ,-75]  (              〜2014年 4月20日)
        m1 = 17.5 + 5 logΔ + 20.0 log r(t - 10)  [-75, 95]  (2014年 4月20日〜2014年10月 7日)
        H = 18.5  G = 0.15                        [ 95,   ]  (2014年10月 7日〜              )

---------------------------------------------------------------------

軌道要素はM.P.E.C. 2015-B177に掲載されたものです。
星図はステラナビゲータ Ver.8 (アストロアーツ) で作成したものです。
光度グラフはComet for Windowsで作成したものです。

---------------------------------------------------------------------

Copyright(C) Seiichi Yoshida (comet@aerith.net). All rights reserved.